Regional Weather Roundup
Issued by NWS

Home | Current Version | Previous Version | Text Only | Print | Product List | Glossary On
Versions: 1 2 3 4 5 6 7 8 9 10 11 12 13 14 15 16 17 18 19 20 21 22 23 24 25 26 27 28 29 30 31 32 33 34 35 36 37 38 39 40 41 42 43 44 45 46 47 48 49 50
000
ASUS43 KLSX 022110
RWRMO

WEATHER SUMMARY FOR MISSOURI
NATIONAL WEATHER SERVICE SPRINGFIELD MO
400 PM CDT WED SEP 02 2015

NOTE: "FAIR" INDICATES FEW OR NO CLOUDS BELOW 12,000 FEET WITH NO
       SIGNIFICANT WEATHER AND/OR OBSTRUCTIONS TO VISIBILITY.
       CURRENT SKY AND/OR WEATHER CONDITIONS ARE NOT AVAILABLE FOR
       CHILLICOTHE AND FARMINGTON.

MOZ001>031-035>038-043-044-053-054-022200-
...NORTHERN AND WESTERN MISSOURI...

CITY           SKY/WX    TMP DP  RH WIND       PRES   REMARKS
KANSAS CTY INT FAIR      89  67  47 S20G26    29.94F HX  92
KANSAS C DTWN  FAIR      90  68  48 S14       29.94F HX  94
LEE`S SUMMIT   FAIR      88  67  49 S14G22    29.96F HX  91
ST JOSEPH      FAIR      87  72  60 S14       29.91F HX  93
CHILLICOTHE      N/A     87  71  58 S10       29.94F HX  93
KIRKSVILLE     FAIR      85  69  58 S8        29.97F

$$
MOZ066>068-077>081-088>096-101>105-022200-
...SOUTHWEST MISSOURI...

CITY           SKY/WX    TMP DP  RH WIND       PRES   REMARKS
SPRINGFIELD    FAIR      88  65  46 S10       30.03F HX  90
JOPLIN         FAIR      88  69  53 S10       30.01F HX  92

$$
MOZ032>034-039>042-045>050-055>058-069>072-022200-
...CENTRAL MISSOURI...

CITY           SKY/WX    TMP DP  RH WIND       PRES   REMARKS
COLUMBIA       FAIR      86  70  58 S12       29.98F HX  90
JEFFERSON CITY FAIR      88  67  49 SW8       29.97F HX  91
ROLLA          FAIR      86  66  51 S12       30.00F
SEDALIA        FAIR      91  68  46 S14       29.99F HX  95
WHITEMAN AFB   MOSUNNY   91  67  45 SW20      29.95F HX  93
WARRENSBURG    FAIR      88  68  51 S13       29.96F HX  91
OSAGE BEACH    PTSUNNY   90  64  43 S9        30.00F HX  91

$$
MOZ051-052-059>065-022200-
...EAST CENTRAL MISSOURI...

CITY           SKY/WX    TMP DP  RH WIND       PRES   REMARKS
ST LOUIS INTL  PTSUNNY   91  62  37 S10       30.00F HX  91
SPIRIT OF STL  FAIR      89  67  47 SW6       29.98F HX  92
ST CHARLES     FAIR      88  65  46 SW10      29.98F HX  90

$$
MOZ072>076-082>087-097>100-106>115-022200-
...SOUTH CENTRAL AND SOUTHEAST MISSOURI...

CITY           SKY/WX    TMP DP  RH WIND       PRES   REMARKS
CAPE GIRARDEAU FAIR      90  66  45 VRB3      30.02F HX  92
FARMINGTON     FAIR      90  70  51 S6        30.05F HX  95
POPLAR BLUFF   FAIR      90  64  42 CALM      30.01F HX  91
WEST PLAINS    FAIR      87  64  46 SW8       30.07F

$$



USA.gov is the U.S. government's official web portal to all federal, state and local government web resources and services.